DMSP 5D-2 F13 DEB, 40676

Orbit data source: Space-Track

DMSP 5D-2 F13 DEB, 40676 is space debris in SSO originally from a launch on Fri, 24 Mar 1995 UTC launched from the Air Force Western Test Range (AFWTR). Debris objects in space refer to the collection of defunct objects orbiting the Earth. Examples of debris include non-operational satellites, rocket bodies, and fragments generated from explosions, collisions, or faulty payload assembly.

Loading next visibility...
Identifier
40676, 1995-015FQ
Orbit
SSO
Country
Flag of USUS
Related business
Manufacturer
Unknown
Mission
Spacecraft
Bus & Motor
Unknown
Mass
Unknown
Launch date (UTC)
1995-03-24 (31 years ago)
Launch vehicle
Unknown
Launch site
Air Force Western Test Range (AFWTR)
Object type
Payload
Rocket body
Debris
Shape & HBR
Unknown shape, 0.1 m
Radar Cross Section
Small (<0.1 m²)

Expand to show TLE details & history
Last TLE update: 11 hours ago

TLE from 11 hours ago
0 DMSP 5D-2 F13 DEB
1 40676U 95015FQ  26037.32320825  .00007314  00000-0  23405-2 0  9997
2 40676  98.6904  75.4835 0004479  68.5815 291.5850 14.39869890557565
Epoch: 2026-02-06T07:45Z
TLE epoch observation values (Epoch: 2026-02-06T07:45:25.192Z)
Latitude
-0.00004°
Longitude
-177.33419°
Altitude
760.696 km
Speed
7.475 km/s
True Right ascension
05h 01m 56s
True Declination
0° 00' 00"
Sunlit
Object was in daylight at epoch
Visualization orbit readout
Latitude
Unknown
Longitude
Unknown
Altitude
Unknown
Speed
Unknown
Apparent Right ascension
Unknown
Apparent Declination
Unknown
Sunlit
N/A
Visualization observer readout
Local Sidereal Time
20:40:15
Azimuth
Unknown
Elevation
Unknown
Doppler factor
Unknown
Orbital elements
Apogee altitude
759.255 km
Perigee altitude
752.864 km
Semi-major axis
7,134.197 km
Eccentricity
0.00045
Inclination
98.6904°
RAAN
75.4835°
Arg. of periapsis
68.5815°
True anomaly
291.53726°
Mean anomaly
291.585°
Eccentric anomaly
291.56113°
Mean motion
3.60185 °/min
Orbital period
99.95 mins
BSTAR
0.0023405
Loading maneuver chart data...
Computing Atmospheric mass density...

Documentation

Showing up to 5 results
|